{"data":{"norad_id":64937,"epoch":"2026-05-25T02:33:16.981056Z","epoch_age_seconds":62866,"freshness":"FRESH","line1":"1 64937U 25158F   26145.10644654  .00004220  00000+0  29629-3 0  9996","line2":"2 64937  97.4536   9.0210 0002161  68.6073 291.5384 15.05657573 46856","mean_motion":15.05657573,"eccentricity":0.0002161,"inclination_deg":97.4536,"raan_deg":9.021,"arg_perigee_deg":68.6073,"mean_anomaly_deg":291.5384,"bstar":0.00029629,"rev_number":4685,"period_min":95.639275876707,"perigee_km":547.99086496354,"apogee_km":550.984984456,"semimajor_km":6927.6249247098,"source":"CELESTRAK","updated_at":"2026-05-25T13:38:20.630005Z"}}